Regional Weather Roundup
Issued by NWS

Home | Current Version | Previous Version | Text Only | Print | Product List | Glossary On
Versions: 1 2 3 4 5 6 7 8 9 10 11 12 13 14 15 16 17 18 19 20 21 22 23 24 25 26 27
000
ASUS45 KCYS 270510
RWRWY

WYOMING REGIONAL WEATHER ROUNDUP
NATIONAL WEATHER SERVICE CHEYENNE WY
1100 PM MDT WED APR 26 2017

NOTE:  "FAIR" INDICATES FEW OR NO CLOUDS BELOW 12,000 FEET
WITH NO SIGNIFICANT WEATHER AND/OR OBSTRUCTIONS TO VISIBILITY.

WYZ001-270600-
YELLOWSTONE NATIONAL PARK

CITY           SKY/WX    TMP DP  RH WIND       PRES   REMARKS
LK YELLOWSTONE   N/A     28  28 100 CALM      29.64F
W YELLOWSTONE  NOT AVBL

$$
WYZ002>013-054>058-071-098>099-270600-
NORTHERN WYOMING

CITY           SKY/WX    TMP DP  RH WIND       PRES   REMARKS
JACKSON        CLOUDY    34  34 100 SW10      29.65F WCI  26
CODY           CLOUDY    39  37  92 NE8       29.63F WCI  33
GREYBULL       MOCLDY    45  37  73 W3        29.58F
WORLAND        CLOUDY    43  39  86 SW3       29.58F
SHERIDAN       FAIR      31  27  85 CALM      29.63F
BUFFALO        FAIR      36  27  69 S7        29.64F WCI  30
GILLETTE       FAIR      28  28 100 CALM      29.64F
HULETT         FAIR      32  28  86 CALM      29.66F
NEWCASTLE      FAIR      32  32 100 SE3       29.69F

$$
WYZ014>020-022>026-101>103-270600-
CENTRAL WYOMING

CITY           SKY/WX    TMP DP  RH WIND       PRES   REMARKS
BIG PINEY      LGT SNOW  34  33  96 W5        29.67F FOG     WCI  30
PINEDALE       LGT SNOW  32  32 100 N7        29.67F WCI  26
DUBOIS         CLOUDY    32  30  93 NW7       29.62F WCI  26
LANDER         CLOUDY    45  28  51 SW6       29.57F
RIVERTON       MOCLDY    45  31  58 S3        29.59F
CASPER         FAIR      35  34  96 SW3       29.63F
DOUGLAS        FAIR      40  35  83 SE9       29.65F WCI  34

$$
WYZ021-027>030-104>119-270600-
SOUTHERN WYOMING

CITY           SKY/WX    TMP DP  RH WIND       PRES   REMARKS
EVANSTON       CLOUDY    34  34 100 SW18      29.71F WCI  23
KEMMERER         N/A     34  32  93 SW13      29.70S WCI  25
FORT BRIDGER   FAIR      35  35 100 W9        29.74S WCI  28
ROCK SPRINGS   LGT RAIN  37  33  85 SW16      29.71S WCI  28
DIXON            N/A     41  34  76 E8        29.73F
RAWLINS        FAIR      39  30  70 SW10      29.68F WCI  32
SARATOGA       CLOUDY    36  32  87 SW12G18   29.70F WCI  27
LARAMIE        CLOUDY    34  31  88 SW13      29.69F WCI  25
CHEYENNE       CLOUDY    41  32  70 SW9       29.70F
TORRINGTON     FAIR      42  38  85 SE8       29.67F
PINE BLUFFS    MOCLDY    39  37  93 S7        29.71F WCI  34

$$




USA.gov is the U.S. government's official web portal to all federal, state and local government web resources and services.